METAR Formatted Surface Weather Observation
Issued by NWS

Home | Current Version | Previous Version | Text Only | Print | Product List | Glossary On
Versions: 1 2 3 4 5 6 7 8 9 10 11 12 13 14 15 16 17 18 19 20 21 22 23 24 25 26 27 28 29 30 31 32 33 34 35 36 37 38 39 40 41 42 43 44 45 46 47 48 49 50
000
SAUS44 KFWD 221158 COR
MTRNQI
METAR KNQI 221156Z 15006KT 10SM FEW015 FEW120 SCT250 23/23 A2988 RMK
AO2 SLP115 CB DSNT E TCU DSNT E AND SE CB T2 SET 60000 70016
T02330233 10272 20233 58001 $



USA.gov is the U.S. government's official web portal to all federal, state and local government web resources and services.